DateTimeUTC,F1_A11,F1_S11,BsB_S11,BsG_S11,BsR_S11,BbsB_S11,BbsG_S11,BbsR_S11,BaB_A11,BaG_A11,BaR_A11,Tu_S11,T_S11,Uu_S11,U_S11,P_S11,T1_A11
2021-07-20T15:00:00Z,00000200,20000000,,,,,,,-000.53,-000.17,-000.12,19.2,25.7,08.4,05.7,0670.2,31.1
2021-07-20T15:01:00Z,00000200,20000000,,,,,,,-000.10,-000.33,-000.35,19.2,25.7,08.2,05.5,0670.2,31.1
2021-07-20T15:02:00Z,00000200,20000000,,,,,,,0000.37,0000.39,0000.54,19.2,25.7,08.2,05.5,0670.3,31.1
2021-07-20T15:03:00Z,00000200,60000000,,,,,,,-000.91,-000.71,-000.88,19.2,25.7,08.2,05.5,0670.2,31.1
2021-07-20T15:04:00Z,00000200,40000000,0000.79,0000.80,0000.47,-000.31,0000.16,0000.24,0000.35,0000.10,0000.39,19.3,25.6,07.6,05.2,0671.2,31.1
2021-07-20T15:05:00Z,00000200,00000000,0000.95,0000.81,0000.30,0000.77,0000.01,-000.05,0000.41,0000.43,0000.16,19.4,25.6,07.8,05.4,0671.2,31.1
2021-07-20T15:06:00Z,00000200,00000000,0000.77,0000.03,0000.41,-000.14,-000.02,0000.18,0000.39,0000.35,0000.60,19.4,25.6,07.9,05.4,0671.2,31.1
2021-07-20T15:07:00Z,00000200,00000000,0001.86,0000.55,0000.54,-000.16,0000.11,-000.04,0000.04,-000.01,-000.23,19.4,25.5,08.3,05.7,0671.2,31.1
2021-07-20T15:08:00Z,00000200,00000000,0001.26,0000.68,0000.63,0000.42,0000.22,0000.45,-000.26,0000.09,-000.12,19.4,25.6,08.1,05.6,0671.2,31.1
2021-07-20T15:09:00Z,00000200,00000000,0000.77,0000.23,0000.73,-000.33,0000.05,0000.21,0000.13,-000.06,0000.12,19.4,25.6,08.2,05.6,0671.2,31.1
2021-07-20T15:10:00Z,00000200,00000000,0000.92,0000.45,0000.42,-000.18,-000.08,0000.16,-000.09,-000.26,0000.22,19.4,25.5,08.1,05.6,0671.1,31.1
2021-07-20T15:11:00Z,00000200,00000000,0000.74,0000.53,0000.38,-000.57,0000.10,-000.16,-000.03,-000.23,-000.03,19.4,25.5,08.1,05.6,0671.2,31.1
2021-07-20T15:12:00Z,00000200,00000000,0000.49,0000.20,0000.47,-000.04,-000.11,-000.03,0000.08,0000.41,-000.29,19.4,25.5,08.2,05.7,0671.2,31.1
2021-07-20T15:13:00Z,00000200,00000000,0000.58,0000.20,0000.17,-000.41,0000.05,0000.03,-000.00,-000.03,0000.08,19.4,25.5,08.0,05.5,0671.2,31.1
2021-07-20T15:14:00Z,00000200,00000000,0000.75,0000.51,0000.75,-000.28,-000.12,0000.25,0000.11,-000.13,0000.06,19.4,25.5,07.9,05.5,0671.2,31.1
2021-07-20T15:15:00Z,00000200,00000000,-000.07,0000.14,0000.48,-000.33,-000.12,0000.41,-000.14,-000.02,0000.01,19.4,25.5,07.9,05.4,0671.2,31.1
2021-07-20T15:16:00Z,00000200,00000000,0000.43,0000.32,0000.35,-000.14,-000.38,0000.15,0000.16,0000.01,0000.03,19.4,25.5,08.0,05.5,0671.2,31.1
2021-07-20T15:17:00Z,00000200,00000000,0000.37,0000.23,0000.69,-000.19,-000.03,0000.27,-000.44,-000.02,-000.26,19.4,25.5,07.9,05.4,0671.2,31.1
2021-07-20T15:18:00Z,00000200,00000000,0000.45,0000.28,0000.37,-000.42,0000.29,0000.12,0000.39,0000.11,0000.38,19.4,25.6,07.8,05.4,0671.2,31.1
2021-07-20T15:19:00Z,00000200,00000000,0000.36,0000.48,0000.41,0000.17,0000.28,0000.16,0000.53,0000.25,0000.23,19.5,25.6,07.7,05.3,0671.2,31.1
2021-07-20T15:20:00Z,00000200,00000000,0000.48,0000.01,0000.13,-000.37,-000.02,-000.10,-000.51,-000.40,-000.33,19.5,25.5,07.9,05.4,0671.3,31.1
2021-07-20T15:21:00Z,00000200,00000000,-000.02,0000.01,0000.18,-000.21,-000.13,0000.16,-000.51,-000.24,-000.76,19.5,25.6,07.7,05.3,0671.2,31.1
2021-07-20T15:22:00Z,00000200,00000000,0000.53,-000.13,0000.17,0000.01,0000.19,0000.05,-000.06,0000.13,0000.63,19.5,25.6,07.5,05.2,0671.2,31.1
2021-07-20T15:23:00Z,00000200,00000000,0000.18,0000.18,0000.27,-000.29,0000.19,0000.28,0000.00,-000.14,-000.16,19.5,25.6,07.5,05.2,0671.2,31.1
2021-07-20T15:24:00Z,00000200,00000000,0000.71,0000.14,0000.19,-000.70,0000.09,-000.06,-000.00,-000.17,-000.16,19.5,25.6,07.6,05.2,0671.2,31.1
2021-07-20T15:25:00Z,00000200,00000000,0000.31,-000.17,0000.32,-000.14,-000.08,-000.02,0000.57,0000.35,0000.62,19.5,25.6,07.7,05.3,0671.3,31.1
2021-07-20T15:26:00Z,00000200,00000000,0000.78,0000.34,0000.43,-000.05,0000.24,0000.04,-000.18,0000.32,-000.17,19.5,25.6,07.8,05.4,0671.2,31.1
2021-07-20T15:27:00Z,00000200,00000000,0000.77,0000.24,0000.28,-000.15,-000.14,0000.01,0000.01,-000.17,-000.02,19.5,25.6,07.8,05.4,0671.2,31.1
2021-07-20T15:28:00Z,00000200,00000000,0000.68,0000.16,0000.12,-000.10,-000.04,-000.11,-000.24,0000.13,-000.08,19.5,25.6,07.5,05.2,0671.2,31.1
2021-07-20T15:29:00Z,00000200,00000000,0000.36,0000.19,0000.33,-000.41,-000.12,-000.02,-000.12,-000.40,-000.20,19.5,25.6,07.5,05.2,0671.2,31.1
2021-07-20T15:30:00Z,00000200,00000000,0000.19,0000.25,0000.26,0000.21,0000.15,0000.10,0000.52,0000.53,0000.26,19.5,25.6,07.5,05.2,0671.2,31.1
2021-07-20T15:31:00Z,00000200,00000000,0001.23,0000.28,0000.60,0000.01,-000.27,0000.24,0000.46,0000.43,0000.26,19.5,25.6,07.8,05.4,0671.3,31.1
2021-07-20T15:32:00Z,00000200,00000000,0000.30,0000.31,0000.17,-000.17,-000.05,0000.07,-000.70,-000.66,-000.11,19.5,25.6,07.8,05.4,0671.2,31.1
2021-07-20T15:33:00Z,00000200,00000000,0000.11,0000.23,0000.13,-000.09,-000.00,-000.39,0000.51,0000.50,0000.05,19.5,25.6,07.7,05.3,0671.2,31.1
2021-07-20T15:34:00Z,00000200,00000000,0000.16,0000.24,0000.18,0000.34,-000.00,0000.05,0000.47,0000.21,0000.30,19.5,25.6,07.7,05.3,0671.3,31.1
2021-07-20T15:35:00Z,00000200,00000000,0000.70,0000.32,0000.31,-000.53,0000.02,0000.10,-001.09,-000.81,-000.49,19.5,25.6,07.7,05.3,0671.2,31.1
2021-07-20T15:36:00Z,00000200,00000000,0000.12,-000.09,0000.08,-000.23,-000.13,0000.02,0000.14,0000.00,0000.02,19.5,25.6,07.4,05.1,0671.2,31.1
2021-07-20T15:37:00Z,00000200,00000000,0000.06,0000.64,0000.06,-000.02,0000.10,0000.08,0000.24,0000.32,0000.30,19.5,25.6,07.6,05.2,0671.2,31.1
2021-07-20T15:38:00Z,00000200,00000000,0000.60,0000.16,-000.05,0000.13,0000.10,-000.01,-000.09,-000.10,-000.30,19.5,25.6,07.6,05.3,0671.2,31.1
2021-07-20T15:39:00Z,00000200,00000000,0000.03,0000.22,0000.45,0000.09,-000.06,0000.08,0000.40,0000.21,-000.04,19.5,25.6,07.6,05.2,0671.2,31.1
2021-07-20T15:40:00Z,00000200,00000000,0000.35,0000.10,0000.29,-000.11,-000.16,-000.13,-000.15,-000.01,0000.40,19.5,25.6,07.7,05.3,0671.3,31.1
2021-07-20T15:41:00Z,00000200,00000000,0000.84,-000.08,0000.49,-000.18,-000.06,0000.09,0000.14,-000.05,0000.21,19.5,25.6,07.7,05.3,0671.2,31.1
2021-07-20T15:42:00Z,00000200,00000000,0001.07,0000.06,0000.57,0000.09,-000.00,0000.03,0000.59,0000.57,0000.12,19.5,25.6,07.7,05.4,0671.3,31.1
2021-07-20T15:43:00Z,00000200,00000000,0000.53,0000.43,0000.61,0000.48,0000.08,0000.09,-000.07,0000.14,-000.01,19.6,25.6,07.8,05.4,0671.3,31.1
2021-07-20T15:44:00Z,00000200,00000000,0000.61,0000.29,0000.35,0000.19,0000.06,0000.29,0000.05,-000.09,0000.41,19.5,25.6,07.8,05.4,0671.2,31.1
2021-07-20T15:45:00Z,00000200,00000000,0000.13,0000.15,-000.16,-000.23,0000.09,-000.14,0000.13,0000.07,-000.28,19.5,25.6,07.8,05.4,0671.2,31.1
2021-07-20T15:46:00Z,00000200,00010000,0000.37,0000.46,0000.57,0000.06,0000.08,0000.04,-000.88,-000.60,-000.56,19.6,25.6,07.8,05.4,0671.3,31.1
2021-07-20T15:47:00Z,00000200,00000000,0000.18,0000.29,0000.27,-000.00,-000.14,0000.15,0000.37,-000.01,0000.07,19.6,25.6,07.3,05.0,0671.3,31.1
2021-07-20T15:48:00Z,00000200,00000000,0000.07,0000.24,0000.42,0000.02,0000.20,-000.11,-000.14,0000.24,-000.00,19.6,25.6,07.5,05.2,0671.3,31.1
2021-07-20T15:49:00Z,00000200,00000000,0000.75,0000.00,0000.08,0000.88,-000.01,-000.10,0000.24,-000.14,0000.41,19.6,25.6,07.7,05.3,0671.2,31.1
2021-07-20T15:50:00Z,00000200,00000000,0000.85,0000.33,-000.26,-000.06,0000.13,-000.38,-000.28,0000.14,-000.52,19.5,25.6,07.6,05.2,0671.2,31.1
2021-07-20T15:51:00Z,00000200,00000000,0000.22,0000.21,0000.55,-000.03,0000.08,-000.06,-000.33,-000.56,0000.08,19.5,25.6,07.3,05.1,0671.2,31.1
2021-07-20T15:52:00Z,00000200,00000000,0000.26,0000.31,0000.42,0000.38,0000.20,-000.14,0000.21,0000.10,-000.29,19.5,25.6,07.1,04.9,0671.2,31.1
2021-07-20T15:53:00Z,00000200,00000000,-000.39,0000.19,0000.28,-000.36,-000.42,0000.40,-000.32,-000.06,-000.13,19.5,25.6,07.1,04.9,0671.2,31.1
2021-07-20T15:54:00Z,00000200,00000000,0000.26,-000.00,0000.11,-000.08,-000.18,-000.18,0000.34,0000.37,0000.53,19.5,25.6,07.0,04.9,0671.3,31.1
2021-07-20T15:55:00Z,00000200,00000000,0001.17,0000.42,0000.55,0000.19,0000.17,0000.44,-000.45,-000.52,-000.33,19.5,25.6,07.2,05.0,0671.2,31.1
2021-07-20T15:56:00Z,00000200,00000000,0000.24,0000.14,0000.45,0000.07,0000.15,-000.13,0000.32,0000.27,0000.16,19.6,25.6,07.3,05.0,0671.3,31.1
2021-07-20T15:57:00Z,00000200,40000000,,,,,,,0000.48,0000.28,0000.61,19.6,25.7,07.5,05.2,0671.3,31.1
2021-07-20T15:58:00Z,00000200,60000000,,,,,,,-000.38,0000.04,-000.41,19.4,25.7,07.4,05.0,0670.3,31.1
2021-07-20T15:59:00Z,00000200,20000000,,,,,,,0000.08,-000.67,-000.24,19.4,25.8,07.4,05.0,0670.3,31.1
